Regional Weather Roundup
Issued by NWS Wilmington, NC

Home | Current Version | Previous Version | Text Only | Print | Product List | Glossary On
Versions: 1 2 3 4 5 6 7 8 9 10 11 12 13 14 15 16 17 18 19 20 21 22 23 24 25 26 27 28 29 30 31 32 33 34 35 36 37 38 39 40 41 42 43 44 45 46 47 48 49 50
000
ASUS42 KILM 190913
RWRILM
RWRILM
REGIONAL HOURLY WEATHER ROUNDUP
NATIONAL WEATHER SERVICE WILMINGTON NC
500 AM EDT SUN APR 19 2015

NOTE: "FAIR" INDICATES FEW OR NO CLOUDS BELOW 12,000 FEET WITH NO
SIGNIFICANT WEATHER AND/OR OBSTRUCTIONS TO VISIBILITY.

...............WFO WILMINGTON COUNTY WARNING AREA...............

......COASTAL NC AND SC COUNTIES......

CITY           SKY/WX    TMP DP  RH WIND       PRES   REMARKS
WILMINGTON     CLOUDY    65  61  87 CALM      29.96F
N MYRTLE BEACH MOCLDY    65  63  93 CALM      29.95F
MYRTLE BEACH   CLOUDY    68  64  88 E9        29.97S

......INLAND NC AND SC COUNTIES.......

CITY           SKY/WX    TMP DP  RH WIND       PRES   REMARKS
LUMBERTON      FOG       64  62  93 CALM      29.95F VSB 3/4
ELIZABETHTOWN  CLOUDY    64  64 100 CALM      29.97S
WHITEVILLE     MOCLDY    63  62  96 CALM      29.96R
FLORENCE       MOCLDY    66  63  90 SE3       29.95F
DARLINGTON     CLOUDY    66  63  88 CALM      29.97S

....................REST OF NORTH CAROLINA......................

.........EASTERN NC.........

CITY           SKY/WX    TMP DP  RH WIND       PRES   REMARKS
CAPE HATTERAS  MOCLDY    59  59 100 NE6       29.99F
JACKSONVILLE   CLOUDY    64  61  88 CALM      29.98F
MOREHEAD CITY  CLOUDY    66  66 100 SE5       29.99R
KENANSVILLE    CLOUDY    63  62  96 CALM      29.98F FOG
NEW BERN       CLOUDY    66  64  93 E3        29.99F
ELIZABETH CITY PTCLDY    55  55 100 CALM      30.01R

.........CENTRAL NC.........

CITY           SKY/WX    TMP DP  RH WIND       PRES   REMARKS
RALEIGH DURHAM CLOUDY    64  61  90 CALM      30.00R
ROCKY MOUNT    CLOUDY    65  63  93 N5        30.00S
ROANOKE RAPIDS NOT AVBL
FAYETTEVILLE   CLOUDY    65  64  97 CALM      29.96S
HOFFMAN        CLOUDY    65  65  99 NE3       30.00S FOG

.........WESTERN NC.........

CITY           SKY/WX    TMP DP  RH WIND       PRES   REMARKS
CHARLOTTE      RAIN      65  62  90 SE10      29.95F FOG
GREENSBORO     CLOUDY    64  63  96 SE3       29.98F
HICKORY        NOT AVBL
BOONE          NOT AVBL
ASHEVILLE      NOT AVBL

.....................REST OF SOUTH CAROLINA.....................

.........EASTERN SC.........

CITY           SKY/WX    TMP DP  RH WIND       PRES   REMARKS
CHARLESTON     CLOUDY    67  65  93 CALM      29.93F
BEAUFORT MCAS  CLOUDY    69  68  96 CALM      29.92S
HILTON HEAD    CLOUDY    70  70 100 CALM      29.93F

.........CENTRAL SC.........

CITY           SKY/WX    TMP DP  RH WIND       PRES   REMARKS
COLUMBIA       CLOUDY    68  65  90 E6        29.92F FOG
ORANGEBURG     CLOUDY    67  64  90 E3        29.94R FOG
SUMTER SHAW    CLOUDY    66  65  96 E2        29.92F

.........WESTERN SC.........

CITY           SKY/WX    TMP DP  RH WIND       PRES   REMARKS
GREENVILLE     NOT AVBL
ROCK HILL      HVY RAIN  65  64  97 E3        29.94S FOG
ANDERSON       CLOUDY    65  64  97 SE5       29.91F
CLEMSON        NOT AVBL
GREENWOOD      CLOUDY    66  65  96 SE6       29.92F FOG


...................COASTAL AND OFFSHORE REPORTS..................

................LOCAL PIERS AND NC RESERVE................


STATION/POSITION TIME  SKY/WX   TEMP    WIND        PRES    VSBY
                                AIR SEA DIR/SP/G
                 (UTC)          (F)     (DEG/KT/KT) (MB)    (MI)
JOHNY MRCER PIER 0800            66 65   40/  5/  6 1014.6R
NC RESRV MASNBRO NOT AVBL
OCEAN CREST PIER 0902            66 66   30/  7/  9 1013.6F
SPRINGMAID  PIER 0800            67 66   20/  6/  8 1014.4F


................COASTAL AND OFFSHORE BUOYS................


STATION/POSITION TIME  SKY/WX   TEMP    WIND        PRES    VSBY
                                AIR SEA DIR/SP/G
                 (UTC)          (F)     (DEG/KT/KT) (MB)    (MI)
DIMNDSHOAL 41025 0850            70 76   20/ 10/ 14 1015.2F
WVE H/P(F/S)=  4/13 WND WVE H/P(F/S)=  2/ 3 SWL H/P/D(F/S/D)=  3/110/13

CAPE LOOKOUT     0900            67     100/  4/  5 1015.4R
ONSLOW BAY 41036 NOT AVBL
5 WRITEBCH 41038 0800            65 65   60/  8/ 10 1015.1R
MASONBORO  41110 0819               65                N/A
WVE H/P(F/S)=  3/ 8 WND WVE H/P(F/S)=  3/ 8 SWL H/P/D(F/S/D)=  2/ 90/13

WILM HARBR 41108 0811               63                N/A
WVE H/P(F/S)=  2/ 8 WND WVE H/P(F/S)=  2/ 8

27WRITEBCH 41037 0800            68 72  110/ 12/ 14   N/A
FRYING PAN 41013 0850            72 73   60/  8/ 10 1014.5F
WVE H/P(F/S)=  3/ 8 WND WVE H/P(F/S)=  2/ 4 SWL H/P/D(F/S/D)=  3/130/ 8

SUNST NRSH 41024 0808            66      50/  4/  6   N/A
CAPRS NRSH 41029 NOT AVBL
EDISTO     41004 0850            72 75   40/  8/  8 1013.1F
WVE H/P(F/S)=  3/ 8 WND WVE H/P(F/S)=  2/ 4 SWL H/P/D(F/S/D)=  3/ 8



..........OFFSHORE BUOYS BEYOND 100 NM OFFSHORE...........
.....IN A TRIANGLE---HAT TO BERMUDA TO BAHAMAS TO HAT.....


STATION/POSITION TIME  SKY/WX   TEMP    WIND        PRES    VSBY
                                AIR SEA DIR/SP/G
                 (UTC)          (F)     (DEG/KT/KT) (MB)    (MI)
150E HAT   41001 NOT AVBL
W BERMUDA  41048 0850            71 72  330/  6/  8 1013.6R
WVE H/P(F/S)=  5/12 WND WVE H/P(F/S)=  2/ 4 SWL H/P/D(F/S/D)=  5/12

ATLANTIC S 41049 0850            75 75  230/ 12/ 14 1015.1F
WVE H/P(F/S)=  6/14 WND WVE H/P(F/S)=  2/ 4 SWL H/P/D(F/S/D)=  5/ 40/14

E BAHAMAS  41046 0850            77 79  150/  2/  4 1016.2F
WVE H/P(F/S)=  7/15 SWL H/P/D(F/S/D)=  7/ 30/15

NE BAHAMAS 41047 0850            75 77  240/  6/  8 1015.1R
WVE H/P(F/S)=  5/14 WND WVE H/P(F/S)=  2/ 4 SWL H/P/D(F/S/D)=  5/ 50/14

120E CANVRL41010 0820            74 78  210/  6/  8 1014.3F

END


USA.gov is the U.S. government's official web portal to all federal, state and local government web resources and services.